This is the latest recevied weather packets stored in our database for station/object W0AKY-13. If no packets are shown the sender has not sent any weather packets the latest 10 day(s).
| Time | Temp. | Humidity | Pressure | Rain* | Wind** | Luminosity | Snow |
|---|---|---|---|---|---|---|---|
| 1788283358 | 34.44° C | 46% | 1015.5 hPa | 0 mm | - | 568 W/m² | - |
| 1788283056 | 33.89° C | 48% | 1015.5 hPa | 0 mm | - | 560 W/m² | - |
| 1788282756 | 34.44° C | 51% | 1015.5 hPa | 0 mm | - | 555 W/m² | - |
| 1788282455 | 33.89° C | 50% | 1015.4 hPa | 0 mm | - | 549 W/m² | - |
| 1788282150 | 33.89° C | 51% | 1015.3 hPa | 0 mm | - | 542 W/m² | - |
| 1788281849 | 33.89° C | 49% | 1015.5 hPa | 0 mm | - | 534 W/m² | - |
| 1788281549 | 33.89° C | 51% | 1015.5 hPa | 0 mm | - | 525 W/m² | - |
| 1788281246 | 33.89° C | 50% | 1015.5 hPa | 0 mm | - | 520 W/m² | - |
| 1788280941 | 33.33° C | 51% | 1015.6 hPa | 0 mm | - | 511 W/m² | - |
| 1788280636 | 33.89° C | 50% | 1015.4 hPa | 0 mm | - | 503 W/m² | - |
| 1788280335 | 33.33° C | 52% | 1015.6 hPa | 0 mm | - | 493 W/m² | - |
| 1788280030 | 32.78° C | 52% | 1015.7 hPa | 0 mm | - | 483 W/m² | - |
| 1788279750 | 32.78° C | 53% | 1015.8 hPa | 0 mm | - | 472 W/m² | - |
| 1788279428 | 32.78° C | 50% | 1016 hPa | 0 mm | - | 463 W/m² | - |
| 1788279123 | 32.78° C | 52% | 1015.9 hPa | 0 mm | - | 452 W/m² | - |
| 1788278827 | 32.78° C | 53% | 1015.5 hPa | 0 mm | - | 443 W/m² | - |
| 1788278514 | 32.78° C | 53% | 1015.6 hPa | 0 mm | - | 430 W/m² | - |
| 1788278213 | 32.22° C | 55% | 1015.4 hPa | 0 mm | - | 419 W/m² | - |
| 1788277909 | 31.67° C | 54% | 1015.6 hPa | 0 mm | - | 407 W/m² | - |
| 1788277604 | 31.67° C | 54% | 1015.6 hPa | 0 mm | - | 394 W/m² | - |
| 1788277299 | 31.67° C | 57% | 1015.5 hPa | 0 mm | - | 238 W/m² | - |
| 1788276994 | 31.67° C | 54% | 1015.6 hPa | 0 mm | - | 373 W/m² | - |
| 1788276693 | 31.67° C | 54% | 1015.5 hPa | 0 mm | - | 348 W/m² | - |
| 1788276388 | 31.11° C | 57% | 1015.4 hPa | 0 mm | - | 350 W/m² | - |
| 1788276087 | 30.56° C | 58% | 1015.3 hPa | 0 mm | - | 340 W/m² | - |
* Rain latest hour (hover to see other rain measurements)
** Current wind speed in m/s (hover to see current wind gust speed)